SHT22A EGLL-EGJB

Flight info

Callsign SHT22A
Flight time 0h 36m
Altitude 21000
Route GASGU N866 SAM/N0376F200 N63 LELNA
Aircraft A319/M-SDE3FGIJ1KRWXY/LB1

Departure

Time 2026-04-20 13:31
Airport London Heathrow Airport (EGLL)

Arrival

Time 2026-04-20 14:07
Airport Guernsey Airport (EGJB)
Time Latitude Longitude Altitude Speed Heading
2026-04-20 13:05 51.47403 -0.48831 87 ft 0 kts 179°
2026-04-20 13:17 51.47423 -0.48832 88 ft 4 kts 179°
2026-04-20 13:17 51.47444 -0.48832 87 ft 3 kts 179°
2026-04-20 13:18 51.47470 -0.48836 88 ft 4 kts 155°
2026-04-20 13:18 51.47485 -0.48861 88 ft 4 kts 106°
2026-04-20 13:18 51.47487 -0.48876 89 ft 0 kts 103°
2026-04-20 13:23 51.47485 -0.48852 91 ft 4 kts 94°
2026-04-20 13:23 51.47485 -0.48770 87 ft 10 kts 89°
2026-04-20 13:23 51.47486 -0.48635 87 ft 14 kts 89°
2026-04-20 13:23 51.47459 -0.48482 88 ft 17 kts 161°
2026-04-20 13:24 51.47358 -0.48478 87 ft 15 kts 179°
2026-04-20 13:24 51.47246 -0.48475 87 ft 18 kts 180°
2026-04-20 13:24 51.47116 -0.48474 87 ft 18 kts 179°
2026-04-20 13:24 51.46993 -0.48474 87 ft 18 kts 179°
2026-04-20 13:25 51.46897 -0.48472 87 ft 8 kts 179°
2026-04-20 13:25 51.46839 -0.48472 87 ft 6 kts 180°
2026-04-20 13:25 51.46831 -0.48472 87 ft 0 kts 180°
2026-04-20 13:26 51.46819 -0.48472 87 ft 4 kts 180°
2026-04-20 13:26 51.46779 -0.48472 87 ft 7 kts 179°
2026-04-20 13:26 51.46719 -0.48470 87 ft 10 kts 179°
2026-04-20 13:26 51.46649 -0.48470 87 ft 10 kts 180°
2026-04-20 13:27 51.46596 -0.48470 88 ft 5 kts 179°
2026-04-20 13:27 51.46555 -0.48469 88 ft 7 kts 180°
2026-04-20 13:27 51.46500 -0.48469 89 ft 9 kts 179°
2026-04-20 13:27 51.46477 -0.48396 89 ft 2 kts 88°
2026-04-20 13:28 51.46477 -0.48395 89 ft 0 kts 88°
2026-04-20 13:30 51.46478 -0.48375 90 ft 9 kts 88°
2026-04-20 13:30 51.46480 -0.47893 87 ft 84 kts 90°
2026-04-20 13:31 51.46486 -0.46571 210 ft 140 kts 88°
2026-04-20 13:31 51.46504 -0.44968 890 ft 147 kts 86°
2026-04-20 13:31 51.46529 -0.43321 1601 ft 154 kts 86°
2026-04-20 13:31 51.46426 -0.41456 2001 ft 187 kts 106°
2026-04-20 13:32 51.45726 -0.39500 2600 ft 217 kts 120°
2026-04-20 13:32 51.44795 -0.37350 2949 ft 245 kts 123°
2026-04-20 13:32 51.43758 -0.35129 3283 ft 252 kts 128°
2026-04-20 13:32 51.42333 -0.33450 3621 ft 260 kts 153°
2026-04-20 13:33 51.40559 -0.32792 3986 ft 270 kts 178°
2026-04-20 13:33 51.38748 -0.33389 5038 ft 276 kts 201°
2026-04-20 13:33 51.37149 -0.35110 6153 ft 281 kts 221°
2026-04-20 13:33 51.35906 -0.37472 7241 ft 284 kts 239°
2026-04-20 13:34 51.34882 -0.40183 8337 ft 286 kts 240°
2026-04-20 13:34 51.33857 -0.42923 9434 ft 289 kts 240°
2026-04-20 13:34 51.32778 -0.45654 10470 ft 293 kts 239°
2026-04-20 13:34 51.31615 -0.48494 10888 ft 318 kts 238°
2026-04-20 13:35 51.30353 -0.51521 11423 ft 333 kts 238°
2026-04-20 13:35 51.29051 -0.54621 12258 ft 338 kts 238°
2026-04-20 13:35 51.27739 -0.57747 13170 ft 340 kts 238°
2026-04-20 13:35 51.26414 -0.60906 14063 ft 343 kts 239°
2026-04-20 13:36 51.25087 -0.64089 14874 ft 346 kts 239°
2026-04-20 13:36 51.23753 -0.67299 15695 ft 348 kts 240°
2026-04-20 13:36 51.22412 -0.70531 16502 ft 350 kts 240°
2026-04-20 13:36 51.21064 -0.73776 17305 ft 353 kts 241°
2026-04-20 13:37 51.19703 -0.77044 18105 ft 355 kts 241°
2026-04-20 13:37 51.18330 -0.80337 18854 ft 358 kts 242°
2026-04-20 13:37 51.16946 -0.83650 19567 ft 359 kts 242°
2026-04-20 13:37 51.15555 -0.86973 20297 ft 361 kts 242°
2026-04-20 13:38 51.14162 -0.90306 20975 ft 363 kts 243°
2026-04-20 13:38 51.12780 -0.93614 21209 ft 362 kts 243°
2026-04-20 13:38 51.11371 -0.96977 21263 ft 360 kts 243°
2026-04-20 13:38 51.09981 -1.00290 21266 ft 359 kts 243°
2026-04-20 13:39 51.08596 -1.03588 21268 ft 359 kts 243°
2026-04-20 13:39 51.07226 -1.06847 21268 ft 359 kts 243°
2026-04-20 13:39 51.05838 -1.10144 21267 ft 359 kts 243°
2026-04-20 13:39 51.04445 -1.13443 21266 ft 359 kts 242°
2026-04-20 13:40 51.03052 -1.16742 21270 ft 359 kts 242°
2026-04-20 13:40 51.01660 -1.20038 21269 ft 360 kts 242°
2026-04-20 13:40 51.00265 -1.23334 21274 ft 360 kts 242°
2026-04-20 13:40 50.98865 -1.26628 21270 ft 360 kts 242°
2026-04-20 13:41 50.97466 -1.29924 21267 ft 360 kts 242°
2026-04-20 13:41 50.95888 -1.33049 21268 ft 368 kts 232°
2026-04-20 13:41 50.93899 -1.35670 21266 ft 377 kts 220°
2026-04-20 13:41 50.91573 -1.37682 21270 ft 383 kts 213°
2026-04-20 13:42 50.89223 -1.39536 21266 ft 383 kts 213°
2026-04-20 13:42 50.84459 -1.43321 21270 ft 383 kts 213°
2026-04-20 13:42 50.82079 -1.45217 21266 ft 383 kts 213°
2026-04-20 13:43 50.79699 -1.47112 21264 ft 383 kts 213°
2026-04-20 13:43 50.77321 -1.49006 21260 ft 383 kts 213°
2026-04-20 13:43 50.74943 -1.50898 21242 ft 383 kts 213°
2026-04-20 13:43 50.72563 -1.52790 21246 ft 383 kts 213°
2026-04-20 13:44 50.70189 -1.54677 21243 ft 383 kts 213°
2026-04-20 13:44 50.67812 -1.56564 21250 ft 383 kts 213°
2026-04-20 13:44 50.65430 -1.58449 21247 ft 383 kts 213°
2026-04-20 13:44 50.63052 -1.60324 21252 ft 383 kts 213°
2026-04-20 13:45 50.60667 -1.62199 21257 ft 383 kts 213°
2026-04-20 13:45 50.58285 -1.64071 21258 ft 383 kts 213°
2026-04-20 13:45 50.55901 -1.65942 21259 ft 383 kts 213°
2026-04-20 13:45 50.53520 -1.67811 21260 ft 383 kts 213°
2026-04-20 13:46 50.51140 -1.69679 21263 ft 383 kts 213°
2026-04-20 13:46 50.48784 -1.71524 21265 ft 383 kts 213°
2026-04-20 13:46 50.46402 -1.73385 21267 ft 382 kts 213°
2026-04-20 13:46 50.44021 -1.75245 21268 ft 382 kts 213°
2026-04-20 13:47 50.41641 -1.77103 21271 ft 382 kts 212°
2026-04-20 13:47 50.39260 -1.78962 21268 ft 382 kts 212°
2026-04-20 13:47 50.36883 -1.80814 21268 ft 382 kts 212°
2026-04-20 13:47 50.34504 -1.82665 21266 ft 382 kts 212°
2026-04-20 13:48 50.32128 -1.84517 21261 ft 381 kts 212°
2026-04-20 13:48 50.29753 -1.86367 21260 ft 381 kts 212°
2026-04-20 13:48 50.27402 -1.88192 21034 ft 374 kts 212°
2026-04-20 13:48 50.25087 -1.89986 20778 ft 370 kts 212°
2026-04-20 13:49 50.22788 -1.91770 20520 ft 368 kts 212°
2026-04-20 13:49 50.20496 -1.93544 20268 ft 367 kts 212°
2026-04-20 13:49 50.18211 -1.95305 20012 ft 366 kts 212°
2026-04-20 13:49 50.15934 -1.97057 19765 ft 365 kts 211°
2026-04-20 13:50 50.13661 -1.98805 19509 ft 364 kts 211°
2026-04-20 13:50 50.11394 -2.00546 19268 ft 363 kts 211°
2026-04-20 13:50 50.09134 -2.02283 19029 ft 362 kts 211°
2026-04-20 13:50 50.06882 -2.04015 18791 ft 361 kts 211°
2026-04-20 13:51 50.04635 -2.05744 18543 ft 360 kts 210°
2026-04-20 13:51 50.02394 -2.07470 18275 ft 358 kts 210°
2026-04-20 13:51 50.00183 -2.09203 17778 ft 354 kts 213°
2026-04-20 13:51 49.98152 -2.11314 17343 ft 350 kts 222°
2026-04-20 13:52 49.96444 -2.13781 16857 ft 344 kts 231°
2026-04-20 13:52 49.94823 -2.16623 16345 ft 342 kts 232°
2026-04-20 13:52 49.93250 -2.19384 15866 ft 340 kts 232°
2026-04-20 13:52 49.91684 -2.22125 15387 ft 339 kts 232°
2026-04-20 13:53 49.90125 -2.24852 14910 ft 337 kts 232°
2026-04-20 13:53 49.88575 -2.27562 14451 ft 335 kts 231°
2026-04-20 13:53 49.87037 -2.30259 13987 ft 333 kts 231°
2026-04-20 13:53 49.85512 -2.32945 13470 ft 331 kts 231°
2026-04-20 13:54 49.84000 -2.35615 12962 ft 329 kts 231°
2026-04-20 13:54 49.82503 -2.38281 12462 ft 327 kts 231°
2026-04-20 13:54 49.81081 -2.40843 11991 ft 325 kts 231°
2026-04-20 13:54 49.79620 -2.43501 11504 ft 324 kts 231°
2026-04-20 13:55 49.78660 -2.45259 11187 ft 323 kts 231°
2026-04-20 13:55 49.77225 -2.47918 10770 ft 320 kts 231°
2026-04-20 13:55 49.75814 -2.50557 10471 ft 315 kts 231°
2026-04-20 13:55 49.74443 -2.53133 10178 ft 306 kts 231°
2026-04-20 13:56 49.73114 -2.55648 9866 ft 298 kts 231°
2026-04-20 13:56 49.71820 -2.58112 9533 ft 292 kts 231°
2026-04-20 13:56 49.70553 -2.60528 9222 ft 287 kts 231°
2026-04-20 13:56 49.69302 -2.62925 8895 ft 285 kts 231°
2026-04-20 13:57 49.68073 -2.65285 8578 ft 278 kts 231°
2026-04-20 13:57 49.66880 -2.67563 8267 ft 268 kts 231°
2026-04-20 13:57 49.65717 -2.69741 7963 ft 258 kts 230°
2026-04-20 13:57 49.64596 -2.71841 7678 ft 251 kts 230°
2026-04-20 13:58 49.63496 -2.73914 7405 ft 249 kts 230°
2026-04-20 13:58 49.62402 -2.75985 7145 ft 249 kts 230°
2026-04-20 13:58 49.61314 -2.78053 6857 ft 248 kts 230°
2026-04-20 13:58 49.60234 -2.80123 6587 ft 247 kts 230°
2026-04-20 13:59 49.59163 -2.82188 6291 ft 247 kts 230°
2026-04-20 13:59 49.58097 -2.84259 6014 ft 247 kts 230°
2026-04-20 13:59 49.57036 -2.86338 5739 ft 246 kts 230°
2026-04-20 13:59 49.55980 -2.88423 5540 ft 247 kts 230°
2026-04-20 14:00 49.54679 -2.90076 5326 ft 242 kts 201°
2026-04-20 14:00 49.53089 -2.90863 5164 ft 240 kts 191°
2026-04-20 14:00 49.51503 -2.91504 4956 ft 231 kts 190°
2026-04-20 14:00 49.49957 -2.92104 4584 ft 226 kts 185°
2026-04-20 14:01 49.48470 -2.91974 4368 ft 206 kts 163°
2026-04-20 14:01 49.47150 -2.91400 4188 ft 189 kts 153°
2026-04-20 14:01 49.45997 -2.90572 3961 ft 179 kts 146°
2026-04-20 14:01 49.44933 -2.89701 3811 ft 167 kts 146°
2026-04-20 14:02 49.43954 -2.88854 3720 ft 157 kts 140°
2026-04-20 14:02 49.43213 -2.87685 3665 ft 151 kts 118°
2026-04-20 14:02 49.42823 -2.86225 3530 ft 147 kts 99°
2026-04-20 14:02 49.42787 -2.84675 3370 ft 145 kts 87°
2026-04-20 14:03 49.42832 -2.83190 3180 ft 145 kts 87°
2026-04-20 14:03 49.42876 -2.81685 2991 ft 144 kts 87°
2026-04-20 14:03 49.42922 -2.80157 2795 ft 143 kts 87°
2026-04-20 14:03 49.42967 -2.78640 2601 ft 142 kts 87°
2026-04-20 14:04 49.43011 -2.77127 2411 ft 142 kts 87°
2026-04-20 14:04 49.43055 -2.75612 2216 ft 142 kts 86°
2026-04-20 14:04 49.43100 -2.74075 2023 ft 148 kts 86°
2026-04-20 14:04 49.43144 -2.72545 1822 ft 134 kts 86°
2026-04-20 14:05 49.43183 -2.71185 1636 ft 123 kts 85°
2026-04-20 14:05 49.43220 -2.69918 1478 ft 118 kts 86°
2026-04-20 14:05 49.43256 -2.68662 1307 ft 117 kts 86°
2026-04-20 14:05 49.43292 -2.67408 1142 ft 116 kts 85°
2026-04-20 14:06 49.43327 -2.66181 980 ft 117 kts 85°
2026-04-20 14:06 49.43363 -2.64928 803 ft 118 kts 84°
2026-04-20 14:06 49.43394 -2.63673 637 ft 117 kts 85°
2026-04-20 14:06 49.43433 -2.62427 475 ft 115 kts 83°
2026-04-20 14:07 49.43467 -2.61204 325 ft 114 kts 83°
2026-04-20 14:07 49.43496 -2.60270 337 ft 60 kts 88°
2026-04-20 14:07 49.43510 -2.59753 346 ft 36 kts 87°
2026-04-20 14:07 49.43517 -2.59482 347 ft 21 kts 87°
2026-04-20 14:08 49.43523 -2.59248 348 ft 20 kts 94°
2026-04-20 14:08 49.43426 -2.59197 345 ft 15 kts 178°
2026-04-20 14:08 49.43372 -2.59282 345 ft 10 kts 267°
2026-04-20 14:08 49.43368 -2.59412 353 ft 14 kts 266°
2026-04-20 14:09 49.43365 -2.59568 350 ft 14 kts 268°
2026-04-20 14:09 49.43361 -2.59680 345 ft 9 kts 261°
2026-04-20 14:09 49.43303 -2.59691 345 ft 8 kts 176°
2026-04-20 14:09 49.43271 -2.59689 345 ft 4 kts 177°
2026-04-20 14:10 49.43259 -2.59688 345 ft 0 kts 177°